Location: Caltech
(34.1382°N, 118.1253°W)
Time: 02:47:56
(UTC-07:00)

SO-50 - Visible Passes

Search period start: 30 September 2014 00:00
Search period end: 10 October 2014 00:00
Orbit: 606 x 691 km, 64.6° (Epoch: 29 September)

Date Brightness Start Highest point End Pass type
(mag) Time Alt. Az. Time Alt. Az. Time Alt. Az.
30 Sep ? 04:37:56 22° N 04:40:51 51° ENE 04:45:35 10° SE visible
30 Sep ? 06:18:09 10° WNW 06:20:59 16° WSW 06:23:49 10° SW visible
30 Sep ? 20:29:15 10° W 20:32:35 20° NW 20:35:59 10° N visible
01 Oct ? 03:28:44 13° ENE 03:28:44 13° ENE 03:29:37 10° E visible
01 Oct ? 05:06:38 50° WNW 05:07:34 60° WSW 05:12:21 10° SSE visible
01 Oct ? 19:14:05 10° SW 19:18:31 74° WNW 19:23:05 10° NNE visible
02 Oct ? 03:57:22 15° ESE 03:57:22 15° ESE 03:58:13 10° ESE visible
02 Oct ? 05:35:16 20° SW 05:35:16 20° SW 05:37:46 10° SSW visible
02 Oct ? 19:41:34 10° WSW 19:45:24 27° NW 19:49:19 10° N visible
03 Oct ? 20:10:58 10° WNW 20:12:35 12° NW 20:14:12 10° NNW visible
04 Oct ? 18:54:04 10° SW 18:58:13 38° NW 19:02:30 10° NNE visible
05 Oct ? 19:22:32 10° W 19:25:17 16° NW 19:28:06 10° N visible
